[[{"header":{"parameterUnit":"m.s-1","parameterCategory":2,"la1":30.2991,"la2":30.254,"lo1":-89.0895,"lo2":-89.0444,"dy":0.0017,"dx":0.0017,"nx":28,"ny":28,"refTime":"2024-08-12T03:00:00:Z","depth":"0","parameterNumber":2,"parameterNumberName":"U-component_of_CURRENTS"},"data":[0,0,0,0,0,0,0,0,0,0,0,0,0,0,0,0,0,0,0,0,0,0,0,0,0,0,0,0,0,0,0,0,0,0,0,0,0,0,0,0,0,0,0,0,0,0,0,0,0,0,0,0,0,0,0,0,0,0,0.3221,0.3221,0,0.3172,0.3171,0.317,0.3159,0.316,0.3161,0.3161,0.3169,0.3168,0.3168,0,0,0,0,0,0,0,0,0,0,0,0,0,0.3244,0.3244,0.3221,0.3221,0.322,0.3172,0.3171,0.317,0.3159,0.316,0.3161,0.3162,0.3169,0.3168,0.3168,0,0,0,0,0,0,0,0,0,0,0,0,0,0.3215,0.3244,0.3221,0.3212,0.3211,0.3172,0.3171,0.317,0.3159,0.316,0.3161,0.3162,0.3169,0.3168,0.3168,0.3143,0,0,0.3166,0.3165,0,0,0,0,0,0,0,0,0.3217,0.3214,0.3213,0.3212,0.3211,0.3176,0.3182,0.3165,0.3159,0.3175,0.3161,0.3163,0.3178,0.3177,0.3159,0.3143,0.3144,0.3166,0.3165,0.3165,0.3165,0,0,0,0,0,0,0,0.3219,0.3216,0.3198,0.3213,0.3212,0.319,0.3187,0.3178,0.3169,0.3173,0.3173,0.3174,0.3178,0.316,0.3159,0.3144,0.3166,0.3165,0.3165,0.3164,0.3189,0.319,0,0,0,0,0,0,0.3235,0.3218,0.3199,0.3197,0.3221,0.3189,0.3186,0.3183,0.3168,0.3168,0.3173,0.3173,0.316,0.316,0.316,0.3182,0.3165,0.3164,0.3164,0.3188,0.3189,0.319,0,0,0,0,0,0,0.3235,0.3233,0.3201,0.3209,0.3204,0.3188,0.3185,0.3182,0.3172,0.3168,0.3168,0.3169,0.3161,0.3161,0.3162,0.3181,0.3164,0.3163,0.3186,0.3188,0.3189,0.3193,0,0,0,0,0,0,0.3236,0.3234,0.3232,0.321,0.3205,0.3181,0.3185,0.318,0.3172,0.3172,0.3164,0.3165,0.3162,0.3163,0.3162,0.3179,0.3163,0.3185,0.3187,0.3189,0.3192,0.3195,0.3197,0,0,0,0,0,0.3237,0.3223,0.3232,0.323,0.3204,0.3181,0.3175,0.3164,0.3171,0.316,0.3164,0.3166,0.3176,0.3163,0.3161,0.3179,0.3184,0.3187,0.3189,0.3191,0.3194,0.3197,0,0,0,0,0,0,0.3216,0.322,0.323,0.3214,0.3205,0.318,0.3163,0.3166,0.3156,0.3159,0.3162,0.3163,0.318,0.3176,0.3162,0.3196,0.3187,0.3189,0.3189,0.3192,0.3195,0.3204,0.3162,0,0,0,0,0,0.3217,0.3215,0.3213,0.3198,0.3194,0.3183,0.3172,0.3169,0.3161,0.3157,0.3153,0.3163,0.3185,0.3185,0.3194,0.3193,0.3256,0.3212,0.3214,0.3216,0.3225,0.334,0.3354,0.3198,0.3198,0.3198,0,0,0.3202,0.3206,0.3202,0.3196,0.3183,0.3171,0.3176,0.3158,0.3157,0.316,0.3148,0.3169,0.319,0.3201,0.3209,0.3199,0.3298,0.3219,0.3221,0.3228,0.3344,0.3359,0.3373,0.3199,0.3199,0.3199,0,0,0.3168,0.3177,0.3165,0.3163,0.3159,0.3154,0.3156,0.3139,0.3141,0.3135,0.3159,0.3191,0.3185,0.3218,0.3234,0.3257,0.3314,0.3262,0.3272,0.3383,0.3398,0.3411,0.3527,0.3551,0.3256,0.3256,0.3256,0,0.315,0.3144,0.3154,0.3145,0.3143,0.3152,0.3139,0.3138,0.3127,0.3144,0.3135,0.3192,0.32,0.326,0.3267,0.3264,0.3341,0.3253,0.3389,0.3403,0.3416,0.3532,0.3558,0.3257,0.3257,0.3257,0.3256,0,0.3115,0.3113,0.31,0.3104,0.3103,0.3088,0.3103,0.3107,0.3116,0.313,0.3183,0.3205,0.3249,0.326,0.3263,0.3364,0.3394,0.3386,0.338,0.3432,0.3551,0.3578,0.3257,0.3257,0.3257,0.3257,0,0,0.3065,0.3075,0.3072,0.3077,0.3086,0.3078,0.3091,0.3113,0.3145,0.3153,0.3208,0.3245,0.3279,0.3303,0.3331,0.3411,0.3567,0.3432,0.3437,0.3548,0.3836,0.3746,0.3767,0.3589,0.3594,0.3597,0.3887,0,0.3033,0.3016,0.3035,0.3023,0.3016,0.3049,0.3068,0.3099,0.3132,0.3184,0.3247,0.3304,0.3292,0.3333,0.3411,0.3534,0.3636,0.349,0.3768,0.3777,0.3691,0.3793,0.3539,0.3766,0.3914,0.3918,0.3922,0,0.2996,0.2994,0.2978,0.3008,0.301,0.3013,0.3068,0.3086,0.3175,0.3215,0.329,0.3345,0.3468,0.3448,0.3694,0.3606,0.3724,0.3812,0.3826,0.3756,0.3735,0.3735,0.381,0.3662,0.3964,0.396,0.3957,0,0.2958,0.2959,0.2949,0.2953,0.2984,0.3,0.3023,0.3095,0.3135,0.325,0.3314,0.3446,0.3544,0.3698,0.3857,0.3804,0.4139,0.4092,0.4131,0.4127,0.3971,0.3944,0.393,0.4288,0.4288,0.4287,0.4286,0,0.2921,0.2912,0.2934,0.2926,0.294,0.2975,0.3016,0.3066,0.3162,0.3234,0.3332,0.3431,0.3615,0.3802,0.3926,0.412,0.421,0.4167,0.4203,0.3964,0.3935,0.3844,0.377,0.4298,0.4295,0.4293,0.4291,0,0.2874,0.2884,0.2878,0.2907,0.2918,0.2928,0.2994,0.3036,0.3138,0.3245,0.3293,0.3478,0.3698,0.3884,0.4167,0.4215,0.4272,0.4453,0.4157,0.4149,0.396,0.3895,0.3895,0.3805,0.4531,0.453,0.453,0,0.2845,0.2837,0.2855,0.286,0.287,0.2897,0.2926,0.301,0.3068,0.3267,0.3328,0.3557,0.3692,0.4058,0.4182,0.4403,0.428,0.4304,0.4125,0.3938,0.3897,0.3784,0.3699,0.3951,0.3946,0.3942,0.3938,0,0.2803,0.2813,0.2818,0.283,0.2847,0.2863,0.2915,0.2953,0.3079,0.3181,0.3342,0.3463,0.3744,0.3816,0.4074,0.4174,0.4018,0.4222,0.4112,0.3509,0.3307,0.3237,0.379,0.3901,0.3905,0.3908,0.391,0.3911,0.2788,0.2787,0.281,0.2826,0.2828,0.2839,0.2845,0.2917,0.2997,0.3106,0.3253,0.3335,0.3447,0.3723,0.3841,0.3761,0.3805,0.3612,0.3585,0.3519,0.3288,0.3754,0.3833,0.3836,0.3839,0.3841,0.3843,0,0.2814,0.2818,0.2811,0.2822,0.281,0.2822,0.2849,0.2837,0.2902,0.2964,0.3052,0.3028,0.3072,0.3186,0.32,0.3127,0.3059,0.303,0.2785,0.2765,0.3253,0.3073,0.2884,0.2884,0.2884,0.2884,0.2884,0.2885,0.2834,0.2847,0.2845,0.2825,0.2812,0.2752,0.2751,0.2714,0.2714,0.2634,0.2563,0.2585,0.2668,0.2662,0.2593,0.2576,0.2425,0.2285,0.2388,0.2656,0.2706,0.2754,0.2566,0.2275,0.2274,0.1752,0.1748,0.1744]},{"header":{"parameterUnit":"m.s-1","parameterCategory":2,"la1":30.2991,"la2":30.254,"lo1":-89.0895,"lo2":-89.0444,"dy":0.0017,"dx":0.0017,"nx":28,"ny":28,"refTime":"2024-08-12T03:00:00:Z","depth":"0","parameterNumber":3,"parameterNumberName":"V-component_of_CURRENTS"},"data":[0,0,0,0,0,0,0,0,0,0,0,0,0,0,0,0,0,0,0,0,0,0,0,0,0,0,0,0,0,0,0,0,0,0,0,0,0,0,0,0,0,0,0,0,0,0,0,0,0,0,0,0,0,0,0,0,0,0,0.0628,0.0628,0,0.0608,0.0608,0.0608,0.0579,0.0579,0.0578,0.0578,0.046,0.0458,0.0455,0,0,0,0,0,0,0,0,0,0,0,0,0,0.0592,0.0593,0.0628,0.0628,0.0628,0.0608,0.0608,0.0608,0.0579,0.0579,0.0578,0.0577,0.0461,0.0458,0.0455,0,0,0,0,0,0,0,0,0,0,0,0,0,0.0594,0.0594,0.0628,0.061,0.0609,0.0608,0.0608,0.0608,0.058,0.0579,0.0578,0.0577,0.0462,0.0458,0.0454,0.0448,0,0,0.0443,0.0441,0,0,0,0,0,0,0,0,0.0594,0.0596,0.0613,0.0612,0.0609,0.0595,0.0552,0.0549,0.058,0.0591,0.0578,0.0577,0.0496,0.0489,0.049,0.0442,0.0437,0.0442,0.044,0.0438,0.0437,0,0,0,0,0,0,0,0.0594,0.0596,0.0621,0.0613,0.0611,0.0586,0.0586,0.0552,0.0548,0.059,0.0588,0.0585,0.0494,0.0494,0.0487,0.0435,0.0442,0.0439,0.0436,0.0435,0.0372,0.0373,0,0,0,0,0,0,0.0599,0.0597,0.0622,0.062,0.0599,0.0588,0.0588,0.0601,0.055,0.0542,0.0586,0.0584,0.0501,0.0492,0.0482,0.0477,0.0438,0.0435,0.0432,0.0372,0.0372,0.0373,0,0,0,0,0,0,0.0599,0.0602,0.0623,0.0606,0.0607,0.059,0.0604,0.0601,0.0597,0.0547,0.0537,0.0584,0.05,0.0488,0.0469,0.0472,0.0433,0.0429,0.0371,0.0372,0.0373,0.0462,0,0,0,0,0,0,0.0598,0.0603,0.0614,0.0607,0.0608,0.0629,0.0605,0.0601,0.0596,0.0593,0.0543,0.0531,0.0499,0.0475,0.0465,0.0466,0.0426,0.037,0.0371,0.0372,0.0458,0.0466,0.0472,0,0,0,0,0,0.0597,0.0616,0.0615,0.0617,0.0625,0.063,0.0629,0.0613,0.0597,0.0604,0.0578,0.0533,0.0475,0.0473,0.0461,0.046,0.0369,0.0371,0.0372,0.0455,0.0464,0.0472,0,0,0,0,0,0,0.06,0.0615,0.0613,0.0634,0.0635,0.0625,0.0625,0.0616,0.0602,0.0595,0.0547,0.0535,0.0519,0.048,0.0479,0.0446,0.0412,0.0411,0.0478,0.0487,0.0494,0.0503,0.0423,0,0,0,0,0,0.0609,0.0632,0.0633,0.065,0.065,0.0639,0.0637,0.063,0.0617,0.061,0.0578,0.0541,0.0517,0.0495,0.0468,0.045,0.0418,0.044,0.0447,0.0453,0.0453,0.0419,0.0424,0.0378,0.0378,0.0378,0,0,0.0614,0.0625,0.0637,0.0653,0.0648,0.066,0.0636,0.0639,0.0647,0.0597,0.0593,0.0566,0.052,0.051,0.0496,0.0475,0.0453,0.0455,0.0461,0.0457,0.0421,0.0426,0.043,0.0379,0.0379,0.0379,0,0,0.0635,0.0646,0.067,0.0676,0.0679,0.0675,0.0678,0.0672,0.0666,0.0667,0.0634,0.0618,0.0573,0.055,0.053,0.0556,0.0497,0.0538,0.0574,0.0542,0.0546,0.0548,0.0533,0.0534,0.0535,0.0536,0.0536,0,0.0638,0.0673,0.0675,0.0695,0.0701,0.0684,0.0703,0.0699,0.069,0.0691,0.0674,0.0633,0.0595,0.0581,0.0594,0.0572,0.0548,0.0548,0.0552,0.0554,0.0555,0.0538,0.0538,0.054,0.054,0.0539,0.0539,0,0.0675,0.0701,0.0712,0.0738,0.0746,0.0759,0.0756,0.0761,0.075,0.0746,0.0737,0.07,0.0673,0.0659,0.0633,0.0622,0.0603,0.0572,0.0534,0.0565,0.0546,0.0543,0.0546,0.0545,0.0544,0.0542,0,0,0.0682,0.0731,0.0734,0.0757,0.0771,0.0783,0.0797,0.0809,0.0824,0.0805,0.0821,0.078,0.076,0.0735,0.0698,0.0669,0.0665,0.0627,0.0624,0.0618,0.0606,0.0606,0.0603,0.0633,0.0632,0.0632,0.0597,0,0.0707,0.0761,0.0776,0.082,0.0842,0.0842,0.0862,0.0871,0.087,0.0883,0.0842,0.0842,0.0787,0.0783,0.0745,0.0694,0.066,0.0678,0.057,0.0567,0.0568,0.0601,0.0579,0.0546,0.0594,0.0594,0.0593,0,0.0734,0.0769,0.082,0.0871,0.0881,0.0904,0.0936,0.0956,0.0965,0.0965,0.095,0.0923,0.0894,0.0839,0.075,0.0765,0.0689,0.0638,0.0635,0.0599,0.0562,0.0517,0.054,0.0414,0.0589,0.059,0.059,0,0.0739,0.0798,0.0843,0.0859,0.091,0.0933,0.0958,0.098,0.1008,0.1021,0.1046,0.0994,0.0988,0.0885,0.0791,0.0766,0.0696,0.0644,0.0568,0.0568,0.0509,0.0505,0.0399,0.0563,0.0563,0.0563,0.0563,0,0.076,0.0795,0.0852,0.0877,0.0933,0.0959,0.1015,0.1035,0.1073,0.1125,0.1089,0.112,0.0998,0.0949,0.0828,0.0714,0.072,0.0584,0.0559,0.0543,0.0541,0.0395,0.0343,0.0561,0.0562,0.0562,0.0562,0,0.0763,0.0798,0.0855,0.0917,0.094,0.098,0.1058,0.1102,0.1135,0.1204,0.1216,0.1218,0.1169,0.1047,0.0908,0.0781,0.0597,0.0607,0.0613,0.0589,0.0386,0.0342,0.023,0.0213,0.0509,0.0509,0.0509,0,0.0772,0.0803,0.0881,0.0918,0.0949,0.1014,0.1067,0.1122,0.1179,0.1271,0.1312,0.1306,0.1319,0.1139,0.0928,0.0732,0.0609,0.0558,0.0493,0.0383,0.0313,0.0282,0.0274,0.0454,0.0454,0.0453,0.0453,0,0.0789,0.0815,0.0865,0.0941,0.1002,0.1074,0.1155,0.121,0.1295,0.1374,0.1473,0.15,0.1359,0.1181,0.0926,0.0768,0.0491,0.0541,0.0411,0.0256,0.0229,0.0199,0.0484,0.0449,0.0449,0.0449,0.045,0.045,0.0796,0.0833,0.0898,0.0971,0.1045,0.1131,0.1201,0.13,0.1416,0.1552,0.1579,0.1647,0.1366,0.1034,0.0843,0.0433,0.0467,0.027,0.0225,0.0204,0.0184,0.0479,0.0426,0.0426,0.0426,0.0426,0.0427,0,0.0795,0.085,0.0923,0.1015,0.1098,0.1134,0.1263,0.1347,0.1499,0.1626,0.1727,0.1597,0.127,0.0921,0.0389,0.0144,0.0072,0.0,-0.0076,-0.0067,0.0163,0.0155,0.0061,0.0061,0.0061,0.0062,0.0062,0.0062,0.0795,0.086,0.0908,0.1039,0.1112,0.1222,0.13,0.1433,0.1549,0.1683,0.1713,0.1729,0.1413,0.0517,-0.007,-0.0188,-0.0301,-0.0347,-0.0375,-0.0268,-0.0248,-0.0228,-0.0251,-0.0428,-0.0429,-0.059,-0.0592,-0.0594]}],[{"header":{"parameterUnit":"m.s-1","parameterCategory":2,"la1":30.2991,"la2":30.254,"lo1":-89.0895,"lo2":-89.0444,"dy":0.0017,"dx":0.0017,"nx":28,"ny":28,"refTime":"2024-08-12T03:00:00:Z","depth":"2","parameterNumber":2,"parameterNumberName":"U-component_of_CURRENTS"},"data":[0,0,0,0,0,0,0,0,0,0,0,0,0,0,0,0,0,0,0,0,0,0,0,0,0,0,0,0,0,0,0,0,0,0,0,0,0,0,0,0,0,0,0,0,0,0,0,0,0,0,0,0,0,0,0,0,0,0,0.2945,0.2945,0,0.2945,0.2945,0.2945,0.2928,0.2928,0.2928,0.2928,0.2911,0.291,0.291,0,0,0,0,0,0,0,0,0,0,0,0,0,0.2915,0.2916,0.2945,0.2946,0.2946,0.2945,0.2945,0.2945,0.2928,0.2928,0.2928,0.2928,0.2911,0.2911,0.291,0,0,0,0,0,0,0,0,0,0,0,0,0,0.2919,0.2916,0.2945,0.2941,0.2941,0.2946,0.2945,0.2944,0.2928,0.2928,0.2928,0.2928,0.2911,0.2911,0.291,0.2906,0,0,0.2908,0.2908,0,0,0,0,0,0,0,0,0.2918,0.2919,0.2941,0.2941,0.2941,0.2941,0.2929,0.2932,0.2928,0.2928,0.2928,0.2928,0.2922,0.2921,0.2914,0.2905,0.2905,0.2908,0.2907,0.2907,0.2907,0,0,0,0,0,0,0,0.2918,0.2919,0.294,0.2942,0.2942,0.2935,0.2935,0.2929,0.2921,0.2928,0.2928,0.2935,0.2922,0.2915,0.2914,0.2904,0.2908,0.2907,0.2907,0.2907,0.2972,0.2974,0,0,0,0,0,0,0.2929,0.2919,0.294,0.2941,0.2935,0.2936,0.2935,0.2937,0.2921,0.2921,0.2935,0.2935,0.2916,0.2915,0.2913,0.2934,0.2907,0.2907,0.2906,0.2969,0.2972,0.2974,0,0,0,0,0,0,0.2928,0.293,0.294,0.2934,0.2935,0.2937,0.2938,0.2937,0.2929,0.2928,0.2926,0.2929,0.2916,0.2914,0.2917,0.2933,0.2906,0.2906,0.2967,0.297,0.2973,0.296,0,0,0,0,0,0,0.2927,0.293,0.293,0.2935,0.2936,0.2935,0.2939,0.2937,0.2937,0.2935,0.2923,0.2921,0.2916,0.2918,0.2917,0.2931,0.2905,0.2964,0.2968,0.2972,0.2958,0.2962,0.2966,0,0,0,0,0,0.2926,0.2925,0.293,0.2933,0.2938,0.2935,0.2934,0.2932,0.2936,0.2926,0.2932,0.2921,0.2944,0.2918,0.2916,0.2931,0.2962,0.2967,0.2972,0.2956,0.2961,0.2966,0,0,0,0,0,0,0.2912,0.2924,0.2929,0.2933,0.2933,0.2934,0.2929,0.2932,0.2927,0.2928,0.2927,0.2926,0.2947,0.2946,0.2919,0.2971,0.296,0.2964,0.2949,0.2954,0.2958,0.2951,0.2905,0,0,0,0,0,0.2912,0.2913,0.2923,0.2924,0.2924,0.2927,0.2927,0.2925,0.2927,0.2924,0.2914,0.293,0.2966,0.2962,0.2981,0.2984,0.303,0.3005,0.3009,0.3012,0.3011,0.3131,0.3145,0.299,0.299,0.299,0,0,0.2907,0.2915,0.2916,0.2921,0.2921,0.2914,0.2924,0.292,0.2917,0.2924,0.2907,0.2939,0.2976,0.2996,0.3005,0.2989,0.3078,0.3018,0.302,0.3017,0.3137,0.3152,0.3166,0.2993,0.2993,0.2992,0,0,0.2893,0.2905,0.2896,0.2897,0.2901,0.2903,0.2903,0.2897,0.2896,0.2891,0.2925,0.2963,0.2967,0.3008,0.3035,0.3075,0.3107,0.309,0.3084,0.32,0.3213,0.3226,0.3283,0.3301,0.3079,0.3079,0.3079,0,0.2886,0.2878,0.2892,0.2884,0.2883,0.2898,0.2884,0.2889,0.2883,0.2895,0.2883,0.2965,0.2979,0.3058,0.3072,0.3081,0.314,0.3051,0.3204,0.3217,0.323,0.3287,0.3306,0.3079,0.3079,0.3079,0.3079,0,0.2862,0.2856,0.2851,0.2847,0.2847,0.2837,0.2852,0.2851,0.2855,0.2871,0.2929,0.2967,0.3023,0.3045,0.3059,0.3169,0.3178,0.3203,0.3182,0.3245,0.33,0.3321,0.3079,0.3079,0.3079,0.3079,0,0,0.2837,0.2833,0.2829,0.2819,0.2825,0.282,0.283,0.2848,0.287,0.2884,0.2929,0.2995,0.3034,0.3071,0.3118,0.3199,0.3323,0.3229,0.3235,0.3269,0.3555,0.322,0.321,0.3387,0.3392,0.3395,0.3549,0,0.2807,0.278,0.2791,0.2766,0.2751,0.2778,0.2788,0.2815,0.2844,0.2888,0.2972,0.3029,0.3044,0.3084,0.3176,0.3302,0.3381,0.3276,0.3504,0.351,0.3191,0.3224,0.2997,0.3086,0.3569,0.3572,0.3575,0,0.2771,0.2759,0.2727,0.2728,0.2726,0.2719,0.2751,0.2764,0.2851,0.2882,0.2969,0.3039,0.3166,0.3172,0.3405,0.3345,0.3446,0.3528,0.3537,0.324,0.3211,0.3109,0.3105,0.361,0.3607,0.3604,0.3602,0,0.2732,0.2713,0.2684,0.2681,0.2688,0.2688,0.2698,0.2759,0.2791,0.289,0.2941,0.3092,0.3184,0.3347,0.3484,0.3478,0.3728,0.3748,0.3542,0.352,0.3372,0.3325,0.3922,0.3922,0.3922,0.3921,0.3921,0,0.2692,0.2671,0.2661,0.2644,0.2631,0.2648,0.2659,0.2698,0.278,0.2838,0.2942,0.3021,0.3243,0.3394,0.3518,0.3552,0.3764,0.3528,0.3535,0.3351,0.3303,0.3799,0.3782,0.3927,0.3926,0.3925,0.3924,0,0.2656,0.2647,0.2618,0.2611,0.2609,0.26,0.2628,0.265,0.2725,0.2816,0.2855,0.3022,0.3179,0.3354,0.3611,0.3548,0.3648,0.3621,0.3331,0.3292,0.3361,0.3343,0.3397,0.3386,0.3377,0.3369,0.3363,0,0.2634,0.2611,0.2589,0.2572,0.2565,0.2556,0.256,0.2617,0.2651,0.2802,0.2851,0.3013,0.3065,0.3224,0.3213,0.3287,0.3508,0.3049,0.2945,0.3303,0.3308,0.3304,0.3298,0.2793,0.2782,0.2774,0.2767,0,0.2594,0.2586,0.2566,0.253,0.2514,0.2508,0.2518,0.2538,0.2626,0.2663,0.2732,0.2772,0.2859,0.2761,0.2765,0.2787,0.2988,0.2856,0.342,0.2872,0.2722,0.2728,0.2747,0.269,0.2698,0.2704,0.2708,0.2711,0.2565,0.2542,0.2508,0.2468,0.2462,0.2446,0.2395,0.2395,0.239,0.2395,0.2538,0.2486,0.2502,0.2326,0.2295,0.2258,0.2435,0.2372,0.2408,0.2451,0.2264,0.2096,0.1915,0.1917,0.192,0.1922,0.1925,0,0.249,0.247,0.2443,0.238,0.2322,0.2375,0.2348,0.225,0.2141,0.2177,0.2136,0.1952,0.1847,0.1954,0.1734,0.1618,0.172,0.1602,0.1785,0.1856,0.192,0.1717,0.1219,0.1217,0.1216,0.1214,0,0,0.2446,0.2379,0.2354,0.2233,0.2211,0.2098,0.2058,0.1924,0.1868,0.1702,0.1639,0.1737,0.1821,0.1512,0.1432,0.1315,0.1598,0.1259,0.1815,0.2101,0.2165,0.2331,0.2087,0,0,0,0,0]},{"header":{"parameterUnit":"m.s-1","parameterCategory":2,"la1":30.2991,"la2":30.254,"lo1":-89.0895,"lo2":-89.0444,"dy":0.0017,"dx":0.0017,"nx":28,"ny":28,"refTime":"2024-08-12T03:00:00:Z","depth":"2","parameterNumber":3,"parameterNumberName":"V-component_of_CURRENTS"},"data":[0,0,0,0,0,0,0,0,0,0,0,0,0,0,0,0,0,0,0,0,0,0,0,0,0,0,0,0,0,0,0,0,0,0,0,0,0,0,0,0,0,0,0,0,0,0,0,0,0,0,0,0,0,0,0,0,0,0,0.0531,0.0531,0,0.055,0.055,0.055,0.0511,0.051,0.0509,0.0508,0.0392,0.039,0.0388,0,0,0,0,0,0,0,0,0,0,0,0,0,0.0456,0.0458,0.0531,0.0532,0.0532,0.055,0.055,0.055,0.0512,0.051,0.0508,0.0507,0.0392,0.039,0.0388,0,0,0,0,0,0,0,0,0,0,0,0,0,0.0484,0.0459,0.0531,0.0514,0.0513,0.055,0.055,0.055,0.0512,0.051,0.0508,0.0506,0.0393,0.039,0.0387,0.0409,0,0,0.0379,0.0377,0,0,0,0,0,0,0,0,0.0482,0.0487,0.0517,0.0516,0.0514,0.0526,0.0481,0.0496,0.0512,0.0513,0.0508,0.0505,0.0425,0.042,0.043,0.0403,0.0398,0.0378,0.0377,0.0376,0.0375,0,0,0,0,0,0,0,0.048,0.0485,0.0539,0.0517,0.0516,0.0504,0.0506,0.0484,0.0477,0.0513,0.051,0.0512,0.0423,0.0433,0.0426,0.0396,0.0379,0.0376,0.0374,0.0373,0.0373,0.0375,0,0,0,0,0,0,0.0481,0.0484,0.0538,0.0539,0.0493,0.0507,0.0509,0.0524,0.048,0.0473,0.0514,0.051,0.0439,0.043,0.0422,0.0443,0.0376,0.0373,0.0371,0.0371,0.0373,0.0375,0,0,0,0,0,0,0.0479,0.0486,0.0538,0.0511,0.0516,0.051,0.0528,0.0526,0.0531,0.0483,0.0472,0.052,0.0437,0.0426,0.0419,0.0438,0.0372,0.0369,0.0369,0.0372,0.0374,0.0486,0,0,0,0,0,0,0.0477,0.0486,0.0499,0.0511,0.0518,0.0566,0.053,0.0528,0.0535,0.0531,0.0485,0.0473,0.0434,0.0424,0.0416,0.0433,0.0367,0.0367,0.0371,0.0374,0.048,0.0492,0.0502,0,0,0,0,0,0.0475,0.0498,0.05,0.0506,0.0537,0.0567,0.057,0.0558,0.0538,0.0553,0.0527,0.0474,0.0438,0.0424,0.0414,0.043,0.0366,0.037,0.0373,0.0475,0.0489,0.0501,0,0,0,0,0,0,0.0461,0.0497,0.0499,0.0529,0.055,0.056,0.0571,0.0567,0.0563,0.0551,0.0501,0.0489,0.0489,0.0451,0.0437,0.0441,0.0391,0.0393,0.0471,0.0484,0.0495,0.0487,0.0364,0,0,0,0,0,0.0471,0.0504,0.0527,0.0553,0.0564,0.0572,0.0581,0.0579,0.0577,0.0573,0.0543,0.0513,0.0502,0.0485,0.0467,0.0471,0.0416,0.0474,0.0485,0.0495,0.0484,0.0438,0.0443,0.0388,0.0388,0.0388,0,0,0.047,0.0496,0.0512,0.0554,0.0566,0.06,0.0573,0.0595,0.0619,0.056,0.0574,0.0551,0.0515,0.0524,0.0519,0.049,0.0485,0.0499,0.0508,0.0491,0.0442,0.0447,0.0451,0.039,0.039,0.0389,0,0,0.0493,0.0513,0.055,0.0578,0.0609,0.062,0.0629,0.0647,0.0648,0.0671,0.0635,0.063,0.0607,0.0592,0.0579,0.0639,0.055,0.0628,0.067,0.0627,0.063,0.0633,0.0582,0.0579,0.0628,0.0628,0.0628,0,0.0488,0.0543,0.0563,0.0606,0.0631,0.0632,0.0673,0.0687,0.0699,0.0706,0.0683,0.0671,0.0641,0.0653,0.0674,0.0662,0.0614,0.0624,0.064,0.0641,0.0641,0.0588,0.0583,0.0634,0.0633,0.0633,0.0632,0,0.0542,0.0586,0.0609,0.0671,0.07,0.0736,0.076,0.0781,0.078,0.0786,0.0798,0.0771,0.0755,0.0756,0.0731,0.073,0.0687,0.0664,0.0604,0.0653,0.0595,0.0587,0.0642,0.064,0.0638,0.0637,0,0,0.0532,0.0629,0.0637,0.0678,0.0738,0.0767,0.0814,0.0855,0.0877,0.0881,0.0904,0.0896,0.0866,0.0849,0.0819,0.0784,0.0758,0.0725,0.072,0.067,0.0647,0.0597,0.0583,0.0729,0.0729,0.0728,0.0609,0,0.0567,0.0657,0.0698,0.0778,0.0825,0.0853,0.0897,0.0931,0.0944,0.0966,0.0944,0.0947,0.0907,0.0896,0.0861,0.079,0.0741,0.0791,0.0609,0.0603,0.0549,0.0574,0.054,0.0429,0.0601,0.06,0.0599,0,0.0609,0.0666,0.0748,0.0839,0.086,0.0902,0.0965,0.1006,0.1038,0.1044,0.1041,0.1016,0.0991,0.0938,0.0824,0.0853,0.075,0.0684,0.0677,0.0579,0.0539,0.0405,0.0408,0.0586,0.0587,0.0588,0.0589,0,0.0597,0.0703,0.0767,0.08,0.0897,0.093,0.0973,0.1021,0.1058,0.1081,0.1097,0.1062,0.1039,0.0928,0.0803,0.0801,0.0659,0.0639,0.0492,0.0486,0.0394,0.0382,0.0526,0.0527,0.0527,0.0527,0.0528,0,0.0627,0.068,0.0764,0.0802,0.0872,0.0933,0.0996,0.1035,0.1087,0.1136,0.1121,0.1141,0.1029,0.0947,0.0817,0.0639,0.0662,0.049,0.0451,0.0435,0.0428,0.0511,0.0511,0.0523,0.0524,0.0525,0.0525,0,0.0616,0.0672,0.0752,0.0846,0.0871,0.0919,0.1013,0.106,0.1103,0.1164,0.1171,0.1183,0.1085,0.0954,0.0778,0.0651,0.049,0.0408,0.0396,0.0357,0.0339,0.0346,0.0233,0.023,0.0227,0.0225,0.0224,0,0.0626,0.0661,0.0763,0.0803,0.0846,0.0919,0.0972,0.1051,0.1109,0.1194,0.1227,0.1173,0.1138,0.088,0.0645,0.0395,0.0423,0.0209,0.0199,0.0334,0.0308,0.0319,0.0329,0.0122,0.012,0.0118,0.0116,0,0.0636,0.0663,0.0726,0.0802,0.0863,0.0944,0.1027,0.1084,0.1184,0.1252,0.1322,0.13,0.1049,0.0801,0.047,0.0312,0.0255,0.016,0.0294,0.0211,0.0223,0.02,0.0215,0.0099,0.0101,0.0102,0.0103,0.0104,0.0631,0.0668,0.0738,0.0813,0.0884,0.0977,0.1057,0.1144,0.1259,0.1345,0.134,0.1289,0.1015,0.0563,0.0318,0.008,0.0093,0.0006,0.0015,0.0025,0.0043,0.0051,-0.0103,-0.0102,-0.0102,-0.0101,-0.0101,0,0.0617,0.0669,0.0744,0.0849,0.0938,0.0969,0.1104,0.1178,0.1314,0.1335,0.1351,0.1081,0.0793,0.0534,0.0123,-0.012,-0.0107,-0.0149,-0.009,-0.0075,-0.0061,-0.0042,-0.0214,-0.0214,-0.0214,-0.0214,0,0,0.0611,0.0674,0.0726,0.0875,0.0952,0.1064,0.115,0.1235,0.1284,0.1306,0.1261,0.1124,0.0817,0.0512,0.0194,-0.0006,0.0029,-0.0036,0.0063,0.0181,0.0199,0.0018,0.0061,0,0,0,0,0]}],[{"header":{"parameterUnit":"m.s-1","parameterCategory":2,"la1":30.2991,"la2":30.254,"lo1":-89.0895,"lo2":-89.0444,"dy":0.0017,"dx":0.0017,"nx":28,"ny":28,"refTime":"2024-08-12T03:00:00:Z","depth":"4","parameterNumber":2,"parameterNumberName":"U-component_of_CURRENTS"},"data":[0,0,0,0,0,0,0,0,0,0,0,0,0,0,0,0,0,0,0,0,0,0,0,0,0,0,0,0,0,0,0,0,0,0,0,0,0,0,0,0,0,0,0,0,0,0,0,0,0,0,0,0,0,0,0,0,0,0,0.0306,0.0307,0,0.0443,0.0445,0.0447,0.0585,0.0587,0.0588,0.0589,0.0727,0.0729,0.0731,0,0,0,0,0,0,0,0,0,0,0,0,0,0.0231,0.0232,0.0306,0.0307,0.0308,0.0442,0.0445,0.0447,0.0585,0.0587,0.0588,0.059,0.0726,0.0729,0.0732,0,0,0,0,0,0,0,0,0,0,0,0,0,0.0311,0.0232,0.0306,0.0389,0.0397,0.0442,0.0445,0.0448,0.0585,0.0587,0.0589,0.0591,0.0725,0.0728,0.0732,0.0716,0,0,0.0743,0.0745,0,0,0,0,0,0,0,0,0.0306,0.0314,0.0375,0.0383,0.0392,0.0493,0.0469,0.0536,0.0584,0.052,0.0589,0.0592,0.0643,0.0654,0.0684,0.0723,0.0729,0.0744,0.0746,0.0748,0.0749,0,0,0,0,0,0,0,0.03,0.031,0.0367,0.0376,0.0386,0.0441,0.0455,0.0483,0.0574,0.0526,0.0535,0.0539,0.0649,0.068,0.0688,0.0731,0.0744,0.0747,0.0749,0.0751,0.0922,0.0924,0,0,0,0,0,0,0.0265,0.0304,0.0362,0.037,0.0346,0.044,0.0456,0.0464,0.0574,0.0591,0.0537,0.0545,0.0673,0.0684,0.0693,0.0871,0.0747,0.0751,0.0753,0.092,0.0922,0.0925,0,0,0,0,0,0,0.0263,0.0269,0.0357,0.0335,0.0349,0.0438,0.0447,0.0466,0.0564,0.0582,0.06,0.0624,0.0675,0.0688,0.0785,0.087,0.0753,0.0756,0.0917,0.0921,0.0924,0.1104,0,0,0,0,0,0,0.026,0.0268,0.0292,0.0332,0.0349,0.0424,0.0445,0.0467,0.0556,0.057,0.066,0.0671,0.0678,0.078,0.0789,0.0873,0.0759,0.0914,0.0919,0.0923,0.1095,0.1113,0.1129,0,0,0,0,0,0.0257,0.0276,0.0292,0.0301,0.0369,0.0425,0.0441,0.0514,0.0559,0.0611,0.0681,0.0672,0.0813,0.0785,0.0795,0.0883,0.0912,0.0917,0.0922,0.1088,0.111,0.1128,0,0,0,0,0,0,0.0269,0.0291,0.0311,0.0341,0.0395,0.0447,0.0504,0.0549,0.0648,0.0696,0.0709,0.0726,0.0832,0.0824,0.0792,0.0938,0.0857,0.0865,0.098,0.1,0.1017,0.1035,0.0762,0,0,0,0,0,0.0272,0.0295,0.0329,0.0363,0.0393,0.0462,0.0506,0.057,0.064,0.0691,0.076,0.0818,0.0848,0.0902,0.0928,0.1022,0.0927,0.1078,0.1095,0.1109,0.1128,0.1033,0.1042,0.0942,0.0942,0.0942,0,0,0.0288,0.0303,0.032,0.0368,0.0424,0.0496,0.05,0.0603,0.0694,0.0686,0.0863,0.0882,0.0879,0.0983,0.1031,0.1004,0.1085,0.1116,0.1129,0.114,0.1039,0.1048,0.1057,0.0946,0.0945,0.0945,0,0,0.0327,0.0349,0.0388,0.044,0.0529,0.0571,0.0611,0.0723,0.0808,0.0958,0.0951,0.1018,0.1134,0.1126,0.1131,0.1248,0.116,0.1281,0.1414,0.1322,0.1329,0.1334,0.1208,0.12,0.1311,0.1311,0.1311,0,0.0351,0.0401,0.0415,0.0481,0.0541,0.061,0.0701,0.0784,0.093,0.0998,0.1052,0.118,0.119,0.1233,0.1304,0.1288,0.1219,0.1344,0.1343,0.1346,0.1348,0.1217,0.1206,0.132,0.1319,0.1318,0.1318,0,0.042,0.0485,0.0523,0.0618,0.0684,0.0782,0.0874,0.0995,0.1122,0.1199,0.1335,0.1359,0.1436,0.1444,0.1441,0.147,0.1406,0.1356,0.1291,0.1369,0.1226,0.1211,0.1334,0.133,0.1328,0.1325,0,0,0.0411,0.0543,0.057,0.0644,0.0779,0.0844,0.0994,0.1125,0.1236,0.1397,0.151,0.1599,0.1642,0.1646,0.1623,0.1577,0.1537,0.1528,0.1519,0.1402,0.1327,0.129,0.1268,0.1507,0.1506,0.1506,0.1213,0,0.0477,0.0613,0.0669,0.0835,0.0912,0.1019,0.1147,0.1285,0.1412,0.1541,0.1577,0.1685,0.1703,0.1768,0.1734,0.1574,0.1514,0.162,0.127,0.1258,0.1216,0.1256,0.1503,0.1201,0.1197,0.1195,0.1193,0,0.053,0.0613,0.0785,0.0947,0.0999,0.1137,0.1339,0.1461,0.1609,0.1715,0.1821,0.1844,0.1851,0.184,0.1646,0.1729,0.1578,0.1434,0.1418,0.1316,0.1197,0.1109,0.1164,0.1167,0.1169,0.1171,0.1172,0,0.0508,0.0691,0.0837,0.0902,0.1102,0.1244,0.138,0.1557,0.1632,0.1828,0.186,0.1925,0.1899,0.1782,0.1531,0.1628,0.1207,0.1274,0.107,0.1061,0.1098,0.1095,0.1107,0.1107,0.1108,0.1109,0.1109,0,0.0522,0.0635,0.0875,0.0957,0.1163,0.1309,0.1513,0.1663,0.179,0.1781,0.1962,0.1863,0.1887,0.1648,0.15,0.1198,0.1171,0.1095,0.0999,0.1177,0.1188,0.1084,0.1086,0.1097,0.11,0.1102,0.1104,0,0.0463,0.0613,0.0787,0.1059,0.1164,0.1333,0.1558,0.1625,0.1801,0.1765,0.1812,0.1796,0.1587,0.1456,0.1162,0.1097,0.0831,0.0692,0.0816,0.0728,0.0784,0.0799,0.0603,0.06,0.0597,0.0595,0.0593,0,0.0446,0.0537,0.0851,0.0948,0.1101,0.1337,0.1436,0.1652,0.1619,0.1593,0.1463,0.1382,0.133,0.0897,0.0818,0.06,0.0564,0.0459,0.0787,0.0815,0.0739,0.0758,0.0776,0.0588,0.0587,0.0587,0.0586,0,0.0401,0.0547,0.068,0.085,0.1015,0.1135,0.1257,0.1251,0.1332,0.1423,0.1201,0.1155,0.0897,0.0812,0.0628,0.0434,0.0605,0.0433,0.0445,0.0753,0.0793,0.0726,0.0747,0.0576,0.0577,0.0578,0.0579,0,0.0389,0.0435,0.0586,0.0751,0.0861,0.0887,0.1025,0.0976,0.1022,0.1027,0.0861,0.0787,0.0781,0.069,0.0419,0.0375,0.0492,0.0546,0.0555,0.0566,0.0704,0.076,0.0447,0,0,0,0,0,0.0369,0.0367,0.0445,0.059,0.0651,0.0747,0.0809,0.0893,0.0938,0.078,0.0884,0.0665,0.0575,0.0493,0.046,0.0401,0.0448,0.0358,0.0506,0.0521,0.0532,0.0707,0,0,0,0,0,0,0.0334,0.0376,0.0388,0.0386,0.0451,0.0492,0.0573,0.0633,0.057,0.064,0.0582,0.0664,0.0548,0.0598,0.0456,0.044,0.0534,0.0342,0.0341,0.0514,0.0524,0.0534,0.0718,0,0,0,0,0]},{"header":{"parameterUnit":"m.s-1","parameterCategory":2,"la1":30.2991,"la2":30.254,"lo1":-89.0895,"lo2":-89.0444,"dy":0.0017,"dx":0.0017,"nx":28,"ny":28,"refTime":"2024-08-12T03:00:00:Z","depth":"4","parameterNumber":3,"parameterNumberName":"V-component_of_CURRENTS"},"data":[0,0,0,0,0,0,0,0,0,0,0,0,0,0,0,0,0,0,0,0,0,0,0,0,0,0,0,0,0,0,0,0,0,0,0,0,0,0,0,0,0,0,0,0,0,0,0,0,0,0,0,0,0,0,0,0,0,0,0.0095,0.0095,0,0.0009,0.0007,0.0006,-0.0043,-0.0042,-0.0042,-0.0041,-0.0232,-0.0238,-0.0243,0,0,0,0,0,0,0,0,0,0,0,0,0,0.0175,0.0173,0.0095,0.0095,0.0094,0.0009,0.0007,0.0005,-0.0043,-0.0042,-0.0042,-0.0041,-0.0231,-0.0237,-0.0244,0,0,0,0,0,0,0,0,0,0,0,0,0,0.0113,0.0173,0.0095,0.0065,0.0062,0.0009,0.0007,0.0005,-0.0043,-0.0042,-0.0042,-0.0041,-0.0228,-0.0237,-0.0245,-0.031,0,0,-0.027,-0.0274,0,0,0,0,0,0,0,0,0.0117,0.0109,0.007,0.0067,0.0064,0.0,-0.0035,-0.0103,-0.0043,-0.001,-0.0041,-0.0041,-0.016,-0.0174,-0.02,-0.0319,-0.0327,-0.0271,-0.0276,-0.0279,-0.0282,0,0,0,0,0,0,0,0.0121,0.0113,0.0054,0.007,0.0066,0.0041,0.0033,-0.0048,-0.0096,-0.0013,-0.0015,-0.0014,-0.0164,-0.0192,-0.0205,-0.033,-0.0271,-0.0278,-0.0283,-0.0286,-0.0541,-0.0542,0,0,0,0,0,0,0.0146,0.0117,0.0057,0.0052,0.01,0.004,0.003,0.0014,-0.0092,-0.0105,-0.0015,-0.0016,-0.0178,-0.0196,-0.0212,-0.0307,-0.0279,-0.0287,-0.0292,-0.0539,-0.0541,-0.0543,0,0,0,0,0,0,0.0148,0.0141,0.0061,0.0089,0.0078,0.0039,0.0021,0.0013,-0.0013,-0.0091,-0.0107,-0.003,-0.0178,-0.0201,-0.0298,-0.0315,-0.0291,-0.0298,-0.0537,-0.054,-0.0542,-0.0491,0,0,0,0,0,0,0.015,0.0142,0.0137,0.009,0.0078,0.002,0.0021,0.0011,-0.001,-0.0013,-0.011,-0.0127,-0.018,-0.0285,-0.0306,-0.0326,-0.0305,-0.0535,-0.0538,-0.0541,-0.049,-0.0492,-0.0493,0,0,0,0,0,0.0153,0.0148,0.0137,0.013,0.0072,0.002,0.0009,-0.002,-0.0011,-0.0038,-0.0102,-0.0124,-0.0321,-0.0294,-0.0318,-0.034,-0.0533,-0.0537,-0.0541,-0.049,-0.0491,-0.0493,0,0,0,0,0,0,0.0181,0.0142,0.0129,0.0112,0.0066,0.0014,0.0003,-0.0018,-0.0087,-0.0088,-0.0157,-0.0181,-0.0269,-0.032,-0.0288,-0.0425,-0.0428,-0.0436,-0.038,-0.0383,-0.0384,-0.0326,-0.0312,0,0,0,0,0,0.0186,0.0168,0.0123,0.0105,0.0092,0.0047,0.0026,-0.0002,-0.006,-0.0088,-0.0154,-0.023,-0.0307,-0.0354,-0.0433,-0.0515,-0.0532,-0.0545,-0.0546,-0.0546,-0.0518,-0.0597,-0.0601,-0.0556,-0.0556,-0.0556,0,0,0.0195,0.0171,0.0162,0.011,0.008,0.0042,0.0034,-0.0002,-0.0042,-0.0102,-0.0179,-0.0241,-0.0331,-0.0419,-0.0463,-0.0462,-0.0563,-0.0551,-0.055,-0.0522,-0.0601,-0.0605,-0.0608,-0.0559,-0.0559,-0.0558,0,0,0.0199,0.018,0.0165,0.0127,0.0082,0.0045,0.0037,-0.0024,-0.0057,-0.0137,-0.0188,-0.026,-0.0377,-0.0446,-0.0493,-0.0553,-0.0566,-0.0576,-0.0536,-0.0614,-0.0617,-0.062,-0.0611,-0.0614,-0.0576,-0.0576,-0.0576,0,0.0215,0.0186,0.015,0.0121,0.0099,0.0049,0.0021,-0.0031,-0.0122,-0.0146,-0.0156,-0.0311,-0.0388,-0.0486,-0.0494,-0.0553,-0.0562,-0.0519,-0.0611,-0.0615,-0.0619,-0.061,-0.0613,-0.0574,-0.0574,-0.0574,-0.0574,0,0.0199,0.0177,0.0168,0.0112,0.0071,0.0043,-0.0025,-0.0069,-0.01,-0.0145,-0.0232,-0.0333,-0.0395,-0.0456,-0.0485,-0.0557,-0.0539,-0.06,-0.0594,-0.0619,-0.0609,-0.0613,-0.0571,-0.0572,-0.0572,-0.0573,0,0,0.0239,0.0174,0.0174,0.0159,0.0072,0.0047,-0.0024,-0.0087,-0.0094,-0.0193,-0.0221,-0.0348,-0.0347,-0.0398,-0.046,-0.0538,-0.0566,-0.0556,-0.0561,-0.0518,-0.0661,-0.0587,-0.0585,-0.0638,-0.0639,-0.0641,-0.0628,0,0.0244,0.0218,0.0165,0.0129,0.0111,0.0044,0.0,-0.0068,-0.0119,-0.0166,-0.0265,-0.0296,-0.0343,-0.0332,-0.0426,-0.0559,-0.058,-0.0558,-0.0666,-0.0667,-0.0578,-0.059,-0.0646,-0.0632,-0.0633,-0.0633,-0.0634,0,0.0249,0.0231,0.0219,0.0169,0.016,0.015,0.0106,0.0061,-0.0027,-0.0053,-0.0109,-0.0174,-0.0277,-0.0303,-0.0491,-0.0468,-0.0512,-0.0612,-0.0616,-0.0562,-0.0603,-0.0616,-0.0643,-0.0642,-0.0641,-0.0641,-0.064,0,0.0318,0.0268,0.0277,0.0258,0.0193,0.0211,0.0204,0.0133,0.0112,0.0076,0.0051,-0.0079,-0.013,-0.0263,-0.0417,-0.0442,-0.0624,-0.0697,-0.0657,-0.065,-0.074,-0.0737,-0.076,-0.076,-0.076,-0.076,-0.076,0,0.0337,0.0338,0.0347,0.0354,0.0399,0.0336,0.0386,0.0357,0.0307,0.0241,0.0178,0.007,-0.0123,-0.0268,-0.039,-0.0523,-0.0581,-0.0621,-0.0651,-0.0715,-0.071,-0.074,-0.0738,-0.076,-0.076,-0.076,-0.076,0,0.0376,0.0376,0.0399,0.0409,0.0441,0.0497,0.0533,0.0525,0.051,0.0415,0.0418,0.0198,0.0007,-0.0154,-0.039,-0.0466,-0.061,-0.0607,-0.0583,-0.0617,-0.058,-0.0576,-0.0587,-0.0584,-0.0582,-0.0581,-0.0579,0,0.0379,0.0405,0.0486,0.0533,0.0561,0.0648,0.0672,0.0666,0.0585,0.0428,0.0307,0.0186,0.0026,-0.0207,-0.0391,-0.0521,-0.0541,-0.0539,-0.0621,-0.0538,-0.0568,-0.0567,-0.0566,-0.0576,-0.0575,-0.0575,-0.0574,0,0.0377,0.0442,0.0458,0.0568,0.0641,0.0672,0.0675,0.0668,0.0551,0.0523,0.0277,0.017,-0.0039,-0.0238,-0.0257,-0.0403,-0.0534,-0.0518,-0.0525,-0.0603,-0.0525,-0.0556,-0.0557,-0.0567,-0.0568,-0.0568,-0.0569,0,0.0388,0.0398,0.045,0.0562,0.0639,0.0637,0.0675,0.0554,0.0517,0.0331,0.0227,0.0058,-0.0064,-0.018,-0.0286,-0.0322,-0.0377,-0.0392,-0.0407,-0.0416,-0.0381,-0.0259,-0.0225,0,0,0,0,0,0.0382,0.0376,0.0427,0.0496,0.0579,0.0632,0.0586,0.0567,0.0482,0.0334,0.0302,0.0118,-0.0022,-0.0147,-0.0168,-0.028,-0.0391,-0.0308,-0.0416,-0.0526,-0.0534,-0.0518,0,0,0,0,0,0,0.0337,0.0368,0.0384,0.0443,0.0517,0.0527,0.0547,0.048,0.0367,0.0303,0.0217,0.0161,0.0006,0.0036,-0.0142,-0.0172,-0.0236,-0.0389,-0.0389,-0.0521,-0.0529,-0.0535,-0.0522,0,0,0,0,0]}]]